Retour au catalogue

CZ-6A DEB

ActifPO
NORAD 60811·DEBRIS·🇨🇳 China

Lancé Aug 6, 2024 depuis Taiyuan Satellite Launch Center

Loading…

Prochains Passages (prochaines 24 heures)

TLE

FraisSource: Space-Track

Époque: Sep 14, 2026, 15:02 UTC

1 60811U 24140GN  26257.62693854  .00005041  00000-0  49976-3 0  9990
2 60811  88.6810 224.4188 0127030 191.9287 167.8925 14.85696238112686

Suivez CZ-6A DEB en temps réel avec AllMySat

Download on the App Store